STARLINK-32327, 61641

Orbit data source: Space-Track

STARLINK-32327, 61641 is a payload satellite owned by SpaceX/Seattle (US) in LEO that was launched on Wed, 23 Oct 2024 UTC via an FALCON 9 launch vehicle from the Air Force Eastern Test Range (AFETR). Payload-class satellites include a variety of spacecraft equipped with specific instruments for various scientific and technological missions. These include communications satellites like Starlink; space stations such as the ISS; scientific satellites like the Hubble; Earth observation satellites from companies like Planet Labs, Umbra, and HawkEye 360; GPS; miniature CubeSats for education and research; and military/defense satellites.

Loading next visibility...
Identifier
61641, 2024-191W
Orbit
LEO
Country
Flag of USUS
Related business
Manufacturer
SpaceX/Seattle
Mission
Operational Commercial Communications
Bus & Motor
STARLINK V2M, Unknown motor
Mass
730 kg wet, ~700 kg dry
Launch date (UTC)
2024-10-23 (1 year ago)
Launch vehicle
FALCON 9
Launch site
Air Force Eastern Test Range (AFETR)
Object type
Payload
Rocket body
Debris
Shape & HBR
Box + 2 Pan, 17.7 m
Radar Cross Section
33.884 m², Large (>1 m²)

Expand to show TLE details & history
Last TLE update: 23 hours ago

TLE from 23 hours ago
0 STARLINK-32327
1 61641U 24191W   25306.28551989  .00004852  00000-0  18577-3 0  9998
2 61641  43.0020 153.8346 0000564  20.4677 339.6197 15.27570134 58051
Epoch: 2025-11-02T06:51Z
TLE epoch observation values (Epoch: 2025-11-02T06:51:08.918Z)
Latitude
-0.00003°
Longitude
9.24397°
Altitude
482.492 km
Speed
7.626 km/s
True Right ascension
10h 15m 20s
True Declination
0° 00' 00"
Sunlit
Object was in daylight at epoch
Visualization orbit readout
Latitude
Unknown
Longitude
Unknown
Altitude
Unknown
Speed
Unknown
Apparent Right ascension
Unknown
Apparent Declination
Unknown
Sunlit
N/A
Visualization observer readout
Local Sidereal Time
01:12:24
Azimuth
Unknown
Elevation
Unknown
Doppler factor
Unknown
Orbital elements
Apogee altitude
485.411 km
Perigee altitude
484.636 km
Semi-major axis
6,863.16 km
Eccentricity
0.00006
Inclination
43.002°
RAAN
153.8346°
Arg. of periapsis
20.4677°
True anomaly
339.61745°
Mean anomaly
339.6197°
Eccentric anomaly
339.61857°
Mean motion
3.81731 °/min
Orbital period
94.31 mins
BSTAR
0.00018577
Loading maneuver chart data...
Computing Atmospheric mass density...
Loading historical data...
Loading historical data...
Loading historical data...
Loading historical data...
Loading historical data...
Loading historical data...
Loading historical data...

Documentation

Showing up to 5 results
|